Weather History for Preston, MN

Change the Weather History Date:

Saturday, November 9, 2013

  Actual Average (KRST) Record (KRST)
Temperature  
Mean Temperature 39 °F 38 °F  
Max Temperature 46 °F 46 °F 71 °F (1999)
Min Temperature 32 °F 30 °F 7 °F (1892)
Degree Days  
Heating Degree Days 26 27  
Month to date heating degree days 227  
Since 1 July heating degree days 963  
Cooling Degree Days 0 0  
Month to date cooling degree days 0  
Year to date cooling degree days 585  
Moisture  
Dew Point 34 °F    
Average Humidity 76    
Maximum Humidity 87    
Minimum Humidity 61    
Precipitation  
Precipitation 0.00 in 0.06 in 2.05 in (1975)
Month to date precipitation 0.59  
Year to date precipitation 30.47  
Snow  
Snow 0.00 in 0.10 in 3.70 in (1985)
Month to date snowfall 1.0  
Since 1 July snowfall 1.8  
Snow Depth -    
Sea Level Pressure  
Sea Level Pressure 29.93 in    
Wind  
Wind Speed 15 mph (WNW)    
Max Wind Speed 30 mph    
Max Gust Speed 47 mph    
Visibility 10 miles    
Events      
T = Trace of Precipitation, MM = Missing Value Source: NWS Daily Summary

Daily Weather History Graph

Daily Weather History Graph

Search for Another Location

Airport:

Trip Planner

Search our weather history database for the weather conditions in past years. The results will help you decide how hot, cold, wet, or windy it might be!

Date:

Astronomy

Nov. 09, 2013 Rise Set
Actual Time 6:55 AM CST 4:49 PM CST
Civil Twilight 6:24 AM CST 5:19 PM CST
Nautical Twilight 5:50 AM CST 5:54 PM CST
Astronomical Twilight 5:16 AM CST 6:27 PM CST
Moon 12:30 PM CST (11/9) 11:22 PM CST (11/9)
Length of Visible Light 10h 54m
Length of Day
9h 53m
Waxing Crescent, 44% of the Moon is Illuminated
Nov 9
Waxing Crescent
Nov 9
First Quarter
Nov 17
Full
Nov 25
Last Quarter
Dec 2
New

Hourly Weather History & Observations

Time (CST) Temp. Windchill Dew Point Humidity Pressure Visibility Wind Dir Wind Speed Gust Speed Precip Events Conditions
12:09 AM 44.1 °F 39.5 °F 37.8 °F 78% 29.69 in 10.0 mi SW 8.1 mph - N/A   Overcast
12:29 AM 44.6 °F 39.7 °F 38.3 °F 79% 29.69 in 10.0 mi WSW 9.2 mph - N/A   Overcast
12:49 AM 44.8 °F 38.3 °F 38.8 °F 80% 29.70 in 10.0 mi WSW 13.8 mph 17.3 mph N/A   Mostly Cloudy
1:09 AM 44.8 °F 38.7 °F 39.2 °F 81% 29.70 in 10.0 mi West 12.7 mph 17.3 mph N/A   Overcast
1:29 AM 44.1 °F 37.7 °F 38.8 °F 82% 29.70 in 10.0 mi West 12.7 mph - N/A   Scattered Clouds
1:49 AM 43.3 °F 37.2 °F 38.5 °F 83% 29.71 in 10.0 mi West 11.5 mph - N/A   Clear
2:09 AM 42.8 °F 36.2 °F 38.3 °F 84% 29.71 in 10.0 mi West 12.7 mph - N/A   Clear
2:29 AM 43.0 °F 37.2 °F 38.7 °F 85% 29.72 in 10.0 mi West 10.4 mph - N/A   Mostly Cloudy
2:48 AM 43.9 °F 37.2 °F 39.2 °F 84% 29.72 in 10.0 mi West 13.8 mph - N/A   Overcast
3:09 AM 44.8 °F 38.0 °F 39.7 °F 82% 29.72 in 10.0 mi West 15.0 mph 20.7 mph N/A   Overcast
3:29 AM 44.6 °F 37.4 °F 39.6 °F 82% 29.73 in 10.0 mi West 16.1 mph 23.0 mph N/A   Overcast
3:49 AM 44.6 °F 36.6 °F 39.0 °F 81% 29.74 in 10.0 mi WNW 19.6 mph 27.6 mph N/A   Overcast
4:09 AM 43.2 °F 35.9 °F 37.8 °F 81% 29.75 in 10.0 mi WNW 15.0 mph 23.0 mph N/A   Mostly Cloudy
4:29 AM 42.4 °F 36.5 °F 37.8 °F 83% 29.75 in 10.0 mi West 10.4 mph - N/A   Mostly Cloudy
4:49 AM 42.3 °F 36.3 °F 37.9 °F 85% 29.76 in 10.0 mi West 10.4 mph - N/A   Overcast
5:09 AM 42.3 °F 37.3 °F 38.3 °F 86% 29.77 in 10.0 mi West 8.1 mph - N/A   Mostly Cloudy
5:29 AM 42.8 °F 36.6 °F 39.2 °F 87% 29.78 in 10.0 mi West 11.5 mph - N/A   Mostly Cloudy
5:49 AM 43.7 °F 38.1 °F 39.6 °F 85% 29.79 in 10.0 mi WSW 10.4 mph 17.3 mph N/A   Overcast
6:09 AM 43.7 °F 36.6 °F 39.4 °F 85% 29.80 in 10.0 mi WSW 15.0 mph 21.9 mph N/A   Overcast
6:29 AM 43.2 °F 37.0 °F 38.8 °F 85% 29.81 in 10.0 mi WSW 11.5 mph 18.4 mph N/A   Overcast
6:49 AM 42.8 °F 36.2 °F 38.5 °F 85% 29.82 in 10.0 mi WSW 12.7 mph 18.4 mph N/A   Overcast
7:08 AM 42.6 °F 36.3 °F 38.1 °F 84% 29.82 in 10.0 mi WSW 11.5 mph - N/A   Overcast
7:29 AM 42.3 °F 35.5 °F 37.8 °F 84% 29.84 in 10.0 mi WSW 12.7 mph 18.4 mph N/A   Overcast
7:49 AM 42.3 °F 35.9 °F 37.4 °F 83% 29.84 in 10.0 mi WSW 11.5 mph 18.4 mph N/A   Overcast
8:09 AM 42.6 °F 35.6 °F 37.4 °F 82% 29.85 in 10.0 mi West 13.8 mph - N/A   Overcast
8:29 AM 42.8 °F 35.8 °F 37.6 °F 82% 29.86 in 10.0 mi West 13.8 mph 20.7 mph N/A   Overcast
8:49 AM 43.2 °F 36.6 °F 38.3 °F 83% 29.87 in 10.0 mi West 12.7 mph 20.7 mph N/A   Overcast
9:09 AM 43.2 °F 35.9 °F 38.3 °F 83% 29.87 in 10.0 mi West 15.0 mph 20.7 mph N/A   Overcast
9:29 AM 46.0 °F 38.3 °F 39.4 °F 78% 29.87 in 10.0 mi West 20.7 mph 27.6 mph N/A   Mostly Cloudy
9:49 AM 45.1 °F 37.9 °F 38.8 °F 79% 29.88 in 10.0 mi WNW 17.3 mph 32.2 mph N/A   Overcast
10:09 AM 44.8 °F 35.9 °F 38.5 °F 79% 29.89 in 10.0 mi WNW 24.2 mph 31.1 mph N/A   Overcast
10:29 AM 45.1 °F 36.4 °F 38.5 °F 77% 29.90 in 10.0 mi WNW 24.2 mph 29.9 mph N/A   Overcast
10:49 AM 45.1 °F 37.1 °F 38.3 °F 77% 29.91 in 10.0 mi West 20.7 mph 28.8 mph N/A   Overcast
11:09 AM 45.5 °F 36.7 °F 36.5 °F 71% 29.92 in 10.0 mi WNW 25.3 mph 33.4 mph N/A   Overcast
11:29 AM 43.9 °F 34.1 °F 35.8 °F 73% 29.93 in 10.0 mi WNW 27.6 mph 34.5 mph N/A   Overcast
11:49 AM 43.7 °F 33.5 °F 34.9 °F 71% 29.93 in 10.0 mi NW 29.9 mph 36.8 mph N/A   Overcast
12:09 PM 43.3 °F 33.0 °F 34.7 °F 72% 29.94 in 10.0 mi WNW 29.9 mph 36.8 mph N/A   Overcast
12:29 PM 45.5 °F 36.5 °F 35.4 °F 68% 29.94 in 10.0 mi NW 26.5 mph 33.4 mph N/A   Overcast
12:49 PM 45.0 °F 36.6 °F 35.6 °F 70% 29.94 in 10.0 mi WNW 21.9 mph 27.6 mph N/A   Scattered Clouds
1:08 PM 45.3 °F 36.1 °F 34.7 °F 66% 29.95 in 10.0 mi WNW 27.6 mph 38.0 mph N/A   Scattered Clouds
1:29 PM 46.6 °F - 34.7 °F 63% 29.95 in 10.0 mi WNW 21.9 mph 31.1 mph N/A   Mostly Cloudy
1:48 PM 43.9 °F 34.7 °F 34.3 °F 69% 29.96 in 10.0 mi WNW 24.2 mph 32.2 mph N/A   Mostly Cloudy
2:09 PM 44.1 °F 35.9 °F 34.7 °F 70% 29.98 in 10.0 mi WNW 19.6 mph 32.2 mph N/A   Mostly Cloudy
2:29 PM 42.8 °F 34.3 °F 32.5 °F 67% 29.99 in 10.0 mi WNW 19.6 mph 35.7 mph N/A   Overcast
2:49 PM 42.8 °F 33.3 °F 32.4 °F 67% 30.00 in 10.0 mi WNW 24.2 mph 32.2 mph N/A   Overcast
3:09 PM 42.8 °F 34.0 °F 32.7 °F 68% 30.01 in 10.0 mi NW 20.7 mph 28.8 mph N/A   Overcast
3:29 PM 42.1 °F 33.1 °F 32.7 °F 69% 30.01 in 10.0 mi WNW 20.7 mph 26.5 mph N/A   Overcast
3:48 PM 42.3 °F 33.1 °F 32.4 °F 68% 30.02 in 10.0 mi WNW 21.9 mph 29.9 mph N/A   Overcast
4:09 PM 42.1 °F 34.2 °F 32.5 °F 69% 30.02 in 10.0 mi WNW 16.1 mph 23.0 mph N/A   Mostly Cloudy
4:29 PM 41.9 °F 35.0 °F 33.4 °F 72% 30.03 in 10.0 mi WNW 12.7 mph - N/A   Overcast
4:49 PM 41.5 °F 31.9 °F 32.2 °F 69% 30.04 in 10.0 mi WNW 23.0 mph 34.5 mph N/A   Overcast
5:09 PM 39.7 °F 28.5 °F 27.5 °F 62% 30.07 in 10.0 mi NW 27.6 mph 47.2 mph N/A   Mostly Cloudy
5:29 PM 38.3 °F 26.8 °F 26.1 °F 61% 30.07 in 10.0 mi NW 26.5 mph 31.1 mph N/A   Scattered Clouds
5:49 PM 37.8 °F 27.7 °F 25.9 °F 62% 30.08 in 10.0 mi NW 19.6 mph 27.6 mph N/A   Clear
6:09 PM 37.6 °F 28.1 °F 26.2 °F 64% 30.09 in 10.0 mi WNW 17.3 mph 24.2 mph N/A   Clear
6:29 PM 37.6 °F 29.6 °F 27.0 °F 66% 30.09 in 10.0 mi WNW 12.7 mph - N/A   Mostly Cloudy
6:49 PM 37.9 °F 29.6 °F 27.5 °F 66% 30.09 in 10.0 mi West 13.8 mph - N/A   Overcast
7:09 PM 37.8 °F 29.8 °F 28.2 °F 68% 30.10 in 10.0 mi West 12.7 mph - N/A   Overcast
7:29 PM 37.8 °F 29.4 °F 28.6 °F 69% 30.10 in 10.0 mi West 13.8 mph - N/A   Overcast
7:49 PM 37.9 °F 27.3 °F 29.1 °F 71% 30.10 in 10.0 mi West 21.9 mph 26.5 mph N/A   Overcast
8:09 PM 37.4 °F 28.2 °F 29.3 °F 73% 30.11 in 10.0 mi WNW 16.1 mph 26.5 mph N/A   Mostly Cloudy
8:29 PM 36.7 °F 24.9 °F 28.4 °F 72% 30.12 in 10.0 mi WNW 25.3 mph 29.9 mph N/A   Scattered Clouds
8:49 PM 36.0 °F 25.0 °F 27.3 °F 71% 30.14 in 10.0 mi WNW 20.7 mph 25.3 mph N/A   Clear
9:09 PM 35.1 °F 24.8 °F 27.3 °F 73% 30.14 in 10.0 mi WNW 17.3 mph 24.2 mph N/A   Clear
9:29 PM 34.7 °F 23.7 °F 26.6 °F 72% 30.15 in 10.0 mi NW 19.6 mph 26.5 mph N/A   Clear
9:49 PM 34.2 °F 24.0 °F 26.2 °F 73% 30.15 in 10.0 mi NW 16.1 mph 25.3 mph N/A   Clear
10:09 PM 33.6 °F 24.1 °F 26.4 °F 75% 30.16 in 10.0 mi NW 13.8 mph - N/A   Clear
10:29 PM 32.9 °F 22.8 °F 26.4 °F 77% 30.16 in 10.0 mi WNW 15.0 mph 20.7 mph N/A   Clear
10:49 PM 32.7 °F 23.0 °F 26.6 °F 78% 30.17 in 10.0 mi WNW 13.8 mph - N/A   Clear
11:09 PM 32.2 °F 21.8 °F 27.1 °F 82% 30.18 in 10.0 mi WNW 15.0 mph 20.7 mph N/A   Clear
11:29 PM 32.2 °F 21.4 °F 27.3 °F 82% 30.18 in 10.0 mi WNW 16.1 mph - N/A   Clear
11:49 PM 32.0 °F 22.1 °F 27.5 °F 83% 30.19 in 10.0 mi WNW 13.8 mph - N/A   Clear